Hourly Data Report for September 14, 2017

All times are specified in Local Standard Time (LST). Add 1 hour to adjust for Daylight Saving Time where and when it is observed.

KUGAARUK CLIMATE
NUNAVUT

68°32'15.060" N
89°47'47.020" W
15.80 m
2303094
71407
NBB

Download Data

Hourly Data (September 2017)
Hourly Data Report for September 14, 2017
Temp Definition
°C
Dew Point Temp Definition
°C
Rel Hum Definition
%
Wind Dir Definition
10's deg

Wind Spd Definition
km/h
Visibility Definition
km
Stn Press Definition
kPa
Hmdx Definition


Wind Chill Definition


Weather Definition


TIME
00:00 -1.7 -2.4 95 3 5   101.57   -4 LegendNANA
01:00 -2.7 -3.4 95 35 3   101.57   -4 LegendNANA
02:00 -2.9 -3.5 96 6 3   101.55   -4 LegendNANA
03:00 -3.1 -3.7 96 3 3   101.54   -4 LegendNANA
04:00 -3.0 -3.6 96 5 1   101.52   -3 LegendNANA
05:00 -3.2 -3.8 96 4 3   101.51   -4 LegendNANA
06:00 -2.2 -3.3 92 7 4   101.49   -4 LegendNANA
07:00 -1.1 -2.9 87 5 1   101.48   -1 LegendNANA
08:00 0.3 -2.4 82 6 4   101.44     LegendNANA
09:00 0.7 -2.1 81 25 7   101.43     LegendNANA
10:00 1.3 -1.8 79 26 14   101.39     LegendNANA
11:00 1.6 -1.8 78 25 16   101.35     LegendNANA
12:00 2.8 -0.8 77 23 15   101.36     LegendNANA
13:00 3.3 0.6 83 24 13   101.34     LegendNANA
14:00 3.4 1.2 85 23 13   101.33     LegendNANA
15:00 3.7 1.2 84 27 11   101.32     LegendNANA
16:00 3.3 1.8 90 26 14   101.31     LegendNANA
17:00 2.6 1.7 94 26 17   101.31     LegendNANA
18:00 2.1 0.3 88 27 19   101.30     LegendNANA
19:00 1.7 0.0 89 27 19   101.28     LegendNANA
20:00 1.4 -0.4 88 26 17   101.26     LegendNANA
21:00 1.3 -0.4 88 26 17   101.23     LegendNANA
22:00 1.3 -0.5 87 26 18   101.20     LegendNANA
23:00 1.3 -0.4 88 25 19   101.18     LegendNANA

Notes on Data Quality.

Legend

  • E = Estimated
  • M = Missing
  • NA = Not Available
  • ‡ = Partner data that is not subject to review by the National Climate Archives
Date modified: